Regional Weather Roundup
Issued by NWS Green Bay, WI

Home | Current Version | Previous Version | Text Only | Print | Product List | Glossary On
Versions: 1 2 3 4 5 6 7 8 9 10 11 12 13 14 15 16 17 18 19 20 21 22 23 24 25 26 27 28 29 30 31 32 33 34 35 36 37 38 39 40 41 42 43 44 45 46 47 48 49 50
000
ASUS43 KGRB 290900
RWRGRB

NORTH-CENTRAL AND NORTHEAST WISCONSIN REGIONAL WEATHER ROUNDUP
NATIONAL WEATHER SERVICE GREEN BAY WI
400 AM CDT FRI MAY 29 2015

WIZ005-009-010>012-018-019-291000-
NORTH CENTRAL WISCONSIN

CITY           SKY/WX    TMP DP  RH WIND       PRES   REMARKS
IRONWOOD       CLOUDY    64  54  68 S7        29.90S
MANITOWISH WTR NOT AVBL
ARBOR VITAE    NOT AVBL
EAGLE RIVER    NOT AVBL
LAND O LAKES   NOT AVBL
RHINELANDER    CLOUDY    65  53  65 S9        29.99F
PHILLIPS       NOT AVBL
ANTIGO         NOT AVBL
TOMAHAWK       NOT AVBL
MERRILL        NOT AVBL
$$

WIZ013-073-291000-
NORTHEAST WISCONSIN

CITY           SKY/WX    TMP DP  RH WIND       PRES   REMARKS
IRON MOUNTAIN  MOCLDY    59  54  83 SE5       29.99F
MARINETTE      CLOUDY    63  54  72 S6        30.01F
$$

WIZ017-030-035>037-045-291000-
CENTRAL WISCONSIN

CITY           SKY/WX    TMP DP  RH WIND       PRES   REMARKS
MEDFORD        NOT AVBL
WAUSAU         CLOUDY    64  55  72 CALM      29.98F
MOSINEE        NOT AVBL
MARSHFIELD     LGT RAIN  63  57  81 S6        29.99S
WISC RAPIDS    LGT RAIN  66  55  67 S13       30.02R
STEVENS POINT  NOT AVBL
WAUPACA        NOT AVBL
SHAWANO        NOT AVBL
CLINTONVILLE   NOT AVBL
$$

WIZ038-039-048-051-291000-
FOX VALLEY

CITY           SKY/WX    TMP DP  RH WIND       PRES   REMARKS
NWS GREEN BAY  CLOUDY    68  56  65 S9        30.01F
APPLETON       NOT AVBL
OSHKOSH        CLOUDY    65  56  72 S7        30.00F
FOND DU LAC    CLOUDY    66  57  72 S8        30.00F
$$

WIZ022-050-052-291000-
EAST CENTRAL WISCONSIN

CITY           SKY/WX    TMP DP  RH WIND       PRES   REMARKS
STURGEON BAY   CLOUDY    61  52  72 S15       30.05F
MANITOWOC      NOT AVBL
SHEBOYGAN      CLOUDY    60  53  77 S7        30.03F
$$

LMZ563-521-522-541>543-291000-
LAKESHORE

STATION/POSITION TIME  TEMP    WIND        PRES    VSBY  WAVE
                       AIR SEA DIR/SP/G                  HT/PER
                 (UTC) (F)     (DEG/KT/KT) (MB)    (MI)  (FT/S)
SHEBOYGAN LKSHOR 0800   56     180/  7/  8 1017.9F
KEWAUNEE LKSHORE 0800   52     180/  5/  8 1016.9F
ALGOMA MARINA    0808           CALM  /  2   N/A
NORTHPORT PIER   0800   57     150/  7/  9 1017.3F
N MID LAKE BUOY  0750   45 36  200/  6/  6 1018.3F         1/ 4
SISTER BAY LKSHO 0818   58     150/ 11/ 15   N/A
CHAMBERS ISLAND  0800   62     160/  5/ 11 1017.3F
MENOMINEE LKSHOR 0800   63     170/  9/ 11 1017.5F
$$


USA.gov is the U.S. government's official web portal to all federal, state and local government web resources and services.